| time (UTC) | temp F | wind direction | speed MPH | gust MPH | rain 1hr in | rain 24hr in | rain mn in | humidity % | barometer mb |
| 20260506114533 | 55 | 0 | 0.0 | 0.0 | 0.00 | 0.00 | 0.00 | 86 | 1019.7 |
| 20260506113030 | 55 | 0 | 0.0 | 0.0 | 0.00 | 0.00 | 0.00 | 86 | 1019.7 |
| 20260506111527 | 55 | 0 | 0.0 | 0.0 | 0.00 | 0.00 | 0.00 | 85 | 1019.5 |
| 20260506110033 | 55 | 0 | 0.0 | 0.0 | 0.00 | 0.00 | 0.00 | 85 | 1019.3 |
| 20260506104530 | 55 | 0 | 0.0 | 0.0 | 0.00 | 0.02 | 0.00 | 85 | 1019.2 |
| 20260506103035 | 55 | 0 | 0.0 | 0.0 | 0.00 | 0.02 | 0.00 | 85 | 1019.2 |
| 20260506101543 | 55 | 0 | 0.0 | 0.0 | 0.00 | 0.02 | 0.00 | 86 | 1019.0 |
| 20260506100037 | 54 | 0 | 0.0 | 0.0 | 0.00 | 0.02 | 0.00 | 86 | 1018.8 |
| 20260506094530 | 54 | 0 | 0.0 | 0.0 | 0.00 | 0.06 | 0.00 | 85 | 1018.8 |
| 20260506093038 | 54 | 0 | 0.0 | 0.0 | 0.00 | 0.06 | 0.00 | 86 | 1018.7 |
| 20260506091529 | 54 | 0 | 0.0 | 0.0 | 0.00 | 0.06 | 0.00 | 86 | 1018.8 |
| 20260506090027 | 54 | 0 | 0.0 | 0.0 | 0.00 | 0.06 | 0.00 | 87 | 1018.9 |
| 20260506084528 | 53 | 0 | 0.0 | 0.0 | 0.00 | 0.08 | 0.00 | 86 | 1018.9 |
| 20260506083033 | 53 | 0 | 0.0 | 0.0 | 0.00 | 0.08 | 0.00 | 86 | 1019.0 |
| 20260506081536 | 53 | 0 | 0.0 | 0.0 | 0.00 | 0.08 | 0.00 | 85 | 1018.9 |
| 20260506073039 | 55 | 0 | 0.0 | 0.0 | 0.00 | 0.08 | 0.00 | 83 | 1018.5 |
| 20260506071532 | 54 | 0 | 0.0 | 0.0 | 0.00 | 0.08 | 0.00 | 84 | 1018.5 |
| 20260506061528 | 55 | 0 | 0.0 | 0.0 | 0.00 | 0.08 | 0.08 | 82 | 1018.0 |
| 20260506044601 | 58 | 0 | 0.0 | 0.0 | 0.00 | 0.08 | 0.08 | 77 | 1017.3 |
| 20260506043028 | 59 | 0 | 0.0 | 1.0 | 0.00 | 0.08 | 0.08 | 77 | 1017.1 |
| 20260506041529 | 59 | 0 | 0.0 | 2.0 | 0.00 | 0.08 | 0.08 | 77 | 1016.9 |
| 20260506040030 | 60 | 0 | 0.0 | 2.0 | 0.00 | 0.08 | 0.08 | 76 | 1016.7 |
| 20260506034551 | 60 | 91 | 2.0 | 3.0 | 0.00 | 0.08 | 0.08 | 75 | 1016.6 |
| 20260506033032 | 61 | 91 | 2.0 | 6.0 | 0.00 | 0.08 | 0.08 | 74 | 1016.4 |
| 20260506031530 | 61 | 91 | 4.0 | 8.0 | 0.00 | 0.08 | 0.08 | 74 | 1016.2 |
| 20260506030030 | 61 | 91 | 3.0 | 7.0 | 0.00 | 0.08 | 0.08 | 74 | 1016.1 |
| 20260506024529 | 62 | 91 | 2.0 | 7.0 | 0.00 | 0.08 | 0.08 | 74 | 1016.0 |
| 20260506023033 | 62 | 91 | 3.0 | 9.0 | 0.00 | 0.08 | 0.08 | 73 | 1015.9 |
| 20260506021533 | 62 | 91 | 3.0 | 8.0 | 0.00 | 0.08 | 0.08 | 72 | 1015.8 |
| 20260506020028 | 63 | 91 | 3.0 | 6.0 | 0.00 | 0.08 | 0.08 | 73 | 1015.7 |
| 20260506014530 | 63 | 91 | 3.0 | 7.0 | 0.00 | 0.08 | 0.08 | 72 | 1015.6 |
| 20260506013029 | 63 | 91 | 2.0 | 6.0 | 0.00 | 0.08 | 0.08 | 72 | 1015.7 |
| 20260506011532 | 63 | 91 | 3.0 | 7.0 | 0.00 | 0.08 | 0.08 | 72 | 1015.6 |
| 20260506010030 | 63 | 91 | 2.0 | 6.0 | 0.00 | 0.08 | 0.08 | 73 | 1015.7 |
| 20260506004536 | 63 | 91 | 2.0 | 7.0 | 0.00 | 0.08 | 0.08 | 73 | 1015.6 |
| 20260506003038 | 64 | 91 | 2.0 | 6.0 | 0.00 | 0.08 | 0.08 | 71 | 1015.6 |
| 20260506001530 | 64 | 0 | 0.0 | 6.0 | 0.00 | 0.08 | 0.08 | 71 | 1015.5 |
| 20260506000030 | 64 | 91 | 0.0 | 1.0 | 0.00 | 0.08 | 0.08 | 71 | 1015.4 |
| 20260505234549 | 63 | 0 | 0.0 | 2.0 | 0.00 | 0.08 | 0.08 | 72 | 1015.5 |
| 20260505233031 | 63 | 91 | 1.0 | 4.0 | 0.00 | 0.08 | 0.08 | 73 | 1015.5 |
| 20260505231533 | 63 | 91 | 1.0 | 6.0 | 0.00 | 0.08 | 0.08 | 73 | 1015.5 |
| 20260505230038 | 63 | 91 | 1.0 | 6.0 | 0.00 | 0.08 | 0.08 | 73 | 1015.5 |
| 20260505224529 | 62 | 91 | 4.0 | 8.0 | 0.00 | 0.08 | 0.08 | 73 | 1015.5 |
| 20260505223030 | 63 | 91 | 3.0 | 7.0 | 0.00 | 0.08 | 0.08 | 73 | 1015.6 |
| 20260505221530 | 64 | 91 | 3.0 | 7.0 | 0.00 | 0.08 | 0.08 | 72 | 1015.6 |
| 20260505220043 | 64 | 91 | 0.0 | 6.0 | 0.00 | 0.08 | 0.08 | 72 | 1015.7 |
| 20260505214536 | 63 | 91 | 0.0 | 4.0 | 0.00 | 0.08 | 0.08 | 74 | 1015.7 |
| 20260505213030 | 63 | 91 | 2.0 | 6.0 | 0.00 | 0.08 | 0.08 | 75 | 1015.9 |
| 20260505211530 | 62 | 91 | 0.0 | 3.0 | 0.00 | 0.08 | 0.08 | 74 | 1015.9 |
| 20260505210030 | 63 | 0 | 0.0 | 0.0 | 0.00 | 0.08 | 0.08 | 74 | 1016.0 |
| 20260505204530 | 62 | 0 | 0.0 | 1.0 | 0.00 | 0.08 | 0.08 | 74 | 1016.1 |
| 20260505203029 | 62 | 0 | 1.0 | 4.0 | 0.00 | 0.08 | 0.08 | 74 | 1016.1 |
| 20260505201528 | 63 | 0 | 0.0 | 1.0 | 0.00 | 0.08 | 0.08 | 72 | 1016.2 |
| 20260505200029 | 62 | 0 | 0.0 | 4.0 | 0.00 | 0.08 | 0.08 | 73 | 1016.2 |
| 20260505194536 | 62 | 0 | 0.0 | 6.0 | 0.00 | 0.08 | 0.08 | 75 | 1016.2 |
| 20260505193039 | 61 | 91 | 1.0 | 8.0 | 0.00 | 0.08 | 0.08 | 75 | 1016.4 |
| 20260505191544 | 61 | 91 | 1.0 | 9.0 | 0.00 | 0.08 | 0.08 | 76 | 1016.2 |
| 20260505190032 | 61 | 0 | 1.0 | 7.0 | 0.00 | 0.08 | 0.08 | 76 | 1016.1 |
| 20260505184528 | 0 | 0.0 | 0.0 | 0.00 | 0.08 | 0.08 | 1016.1 | ||
| 20260505183030 | 0 | 0.0 | 0.0 | 0.00 | 0.08 | 0.08 | 1016.2 | ||
| 20260505181529 | 0 | 0.0 | 0.0 | 0.00 | 0.08 | 0.08 | 1016.0 | ||
| 20260505180044 | 0 | 0.0 | 0.0 | 0.00 | 0.08 | 0.08 | 1016.0 | ||
| 20260505174538 | 0 | 0.0 | 0.0 | 0.00 | 0.08 | 0.08 | 1016.0 | ||
| 20260505173028 | 0 | 0.0 | 0.0 | 0.00 | 0.08 | 0.08 | 1015.8 | ||
| 20260505171533 | 0 | 0.0 | 0.0 | 0.00 | 0.08 | 0.08 | 1015.8 | ||
| 20260505170031 | 0 | 0.0 | 0.0 | 0.00 | 0.08 | 0.08 | 1015.8 | ||
| 20260505164532 | 0 | 0.0 | 0.0 | 0.00 | 0.08 | 0.08 | 1015.7 | ||
| 20260505163028 | 0 | 0.0 | 0.0 | 0.00 | 0.08 | 0.08 | 1015.8 | ||
| 20260505161529 | 0 | 0.0 | 0.0 | 0.00 | 0.08 | 0.08 | 1015.7 | ||
| 20260505153040 | 0 | 0.0 | 0.0 | 0.00 | 0.08 | 0.08 | 1015.5 | ||
| 20260505151533 | 0 | 0.0 | 0.0 | 0.00 | 0.08 | 0.08 | 1015.3 | ||
| 20260505124529 | 0 | 0.0 | 0.0 | 0.00 | 0.08 | 0.08 | 1014.4 | ||
| 20260505123051 | 0 | 0.0 | 0.0 | 0.00 | 0.08 | 0.08 | 1014.4 | ||
| 20260505121528 | 0 | 0.0 | 0.0 | 0.00 | 0.08 | 0.08 | 1014.4 | ||
| 20260505120031 | 0 | 0.0 | 0.0 | 0.00 | 0.08 | 0.08 | 1014.4 |